This is the latest recevied weather packets stored in our database for station/object WZ8H. If no packets are shown the sender has not sent any weather packets the latest 10 day(s).
| Time | Temp. | Humidity | Pressure | Rain* | Wind** | Luminosity | Snow |
|---|---|---|---|---|---|---|---|
| 1777988604 | 17.22° C | 77% | 1004.6 hPa | 0 mm | - | 418 W/m² | - |
| 1777988301 | 17.22° C | 77% | 1004.6 hPa | 0 mm | - | 373 W/m² | - |
| 1777987996 | 17.22° C | 77% | 1004.4 hPa | 0 mm | - | 408 W/m² | - |
| 1777987670 | 17.22° C | 77% | 1004.3 hPa | 0 mm | - | 457 W/m² | - |
| 1777987367 | 17.22° C | 77% | 1004.4 hPa | 0 mm | - | 459 W/m² | - |
| 1777987042 | 17.22° C | 77% | 1004.4 hPa | 0 mm | - | 366 W/m² | - |
| 1777986740 | 16.67° C | 77% | 1004.4 hPa | 0 mm | - | 417 W/m² | - |
| 1777986433 | 16.67° C | 77% | 1004.3 hPa | 0 mm | - | 413 W/m² | - |
| 1777986135 | 16.67° C | 77% | 1004.3 hPa | 0 mm | - | 388 W/m² | - |
| 1777985802 | 16.67° C | 78% | 1004.3 hPa | 0 mm | - | 432 W/m² | - |
| 1777985498 | 16.67° C | 78% | 1004.4 hPa | 0 mm | - | 392 W/m² | - |
| 1777985195 | 16.11° C | 78% | 1004.4 hPa | 0 mm | - | 278 W/m² | - |
| 1777984870 | 16.11° C | 77% | 1004.4 hPa | 0 mm | - | 148 W/m² | - |
| 1777984571 | 16.11° C | 78% | 1004.3 hPa | 0 mm | - | 237 W/m² | - |
| 1777984237 | 16.11° C | 79% | 1004.5 hPa | 0 mm | - | 221 W/m² | - |
| 1777983936 | 16.11° C | 79% | 1004.4 hPa | 0 mm | - | 181 W/m² | - |
| 1777983609 | 16.11° C | 79% | 1004.5 hPa | 0 mm | - | 176 W/m² | - |
| 1777983304 | 16.11° C | 79% | 1004.4 hPa | 0 mm | - | 137 W/m² | - |
| 1777982978 | 16.11° C | 80% | 1004.3 hPa | 0 mm | - | 116 W/m² | - |
| 1777982674 | 16.11° C | 79% | 1004.3 hPa | 0 mm | - | 102 W/m² | - |
| 1777982349 | 16.11° C | 79% | 1004 hPa | 0 mm | - | 93 W/m² | - |
| 1777982021 | 16.11° C | 79% | 1003.9 hPa | 0 mm | - | 76 W/m² | - |
| 1777981719 | 16.11° C | 78% | 1003.7 hPa | 0 mm | - | 70 W/m² | - |
| 1777981422 | 16.11° C | 78% | 1003.3 hPa | 0 mm | - | 56 W/m² | - |
| 1777981091 | 16.11° C | 78% | 1003.1 hPa | 0 mm | - | 37 W/m² | - |
* Rain latest hour (hover to see other rain measurements)
** Current wind speed in m/s (hover to see current wind gust speed)